Location: Buchloe
(48.0161°N, 10.7316°E)
Time: 02:58:17
(UTC+02:00)

ISS - Pass Details

Date: 14 July 2025
Orbit: 413 x 417 km, 51.6° (Epoch: 12 July)

Event Time Altitude Azimuth Distance (km) Brightness Sun altitude
Rises 22:44:05 0° 276° (W) 2,350 0.7 -11.9°
Reaches altitude 10° 22:46:15 10° 283° (WNW) 1,488 -0.2 -12.1°
Maximum altitude 22:49:27 43° 357° (N) 598 -2.5 -12.4°
Drops below altitude 10° 22:52:40 10° 70° (ENE) 1,491 -1.1 -12.7°
Enters shadow 22:54:45 - 78° (ENE) 2,320 -0.2 -12.9°
